GW0560 Weather Reports


time (UTC)temp
F
wind
direction
speed
knots
gust
knots
rain 1hr
in
rain 24hr
in
rain mn
in
humidity
%
barometer
mb
20260510203051 56 269 3.5 8.7 0.00 0.00 0.00 35 1017.2
20260510201550 56 246 3.5 12.2 0.00 0.00 0.00 35 1017.3
20260510200049 56 252 6.1 12.2 0.00 0.00 0.00 33 1017.5
20260510194556 56 247 5.2 10.4 0.00 0.00 0.00 34 1017.6
20260510193052 56 279 1.7 7.8 0.00 0.00 0.00 35 1017.7
20260510191553 55 254 3.5 12.2 0.00 0.00 0.00 33 1017.6
20260510190056 56 254 3.5 11.3 0.00 0.00 0.00 35 1017.7
20260510184559 55 306 3.5 8.7 0.00 0.00 0.00 36 1017.6
20260510183102 55 259 6.1 10.4 0.00 0.00 0.00 35 1017.5
20260510181635 55 301 5.2 13.9 0.00 0.00 0.00 35 1017.3
20260510180107 55 217 6.1 13.0 0.00 0.00 0.00 36 1017.2
20260510174602 54 244 4.3 13.9 0.00 0.00 0.00 34 1017.2
20260510173058 54 355 5.2 14.8 0.00 0.00 0.00 33 1017.1
20260510171558 54 270 5.2 14.8 0.00 0.00 0.00 37 1017.4
20260510164558 53 259 5.2 16.5 0.00 0.00 0.00 38 1017.5
20260510163058 52 269 7.8 13.9 0.00 0.00 0.00 38 1017.5
20260510161555 52 280 6.1 12.2 0.00 0.00 0.00 38 1017.3
20260510160058 51 301 2.6 14.8 0.00 0.00 0.00 40 1017.3
20260510154558 51 335 3.5 11.3 0.00 0.00 0.00 42 1017.3
20260510153056 51 5 4.3 12.2 0.00 0.00 0.00 42 1017.2
20260510151552 51 327 5.2 12.2 0.00 0.00 0.00 44 1017.1
20260510150054 50 325 5.2 11.3 0.00 0.00 0.00 43 1017.0
20260510144553 50 313 4.3 8.7 0.00 0.00 0.00 44 1017.0
20260510143056 49 249 5.2 10.4 0.00 0.00 0.00 44 1016.9
20260510141552 48 253 4.3 9.6 0.00 0.00 0.00 46 1016.7
20260510140052 48 276 2.6 9.6 0.00 0.00 0.00 49 1016.7
20260510134604 47 153 5.2 10.4 0.00 0.02 0.00 50 1016.7
20260510133053 47 250 3.5 7.0 0.00 0.02 0.00 51 1016.5
20260510131552 46 279 3.5 7.8 0.00 0.02 0.00 51 1016.3
20260510130107 45 323 2.6 5.2 0.00 0.02 0.00 54 1016.1
20260510124555 45 265 1.7 6.1 0.00 0.02 0.00 55 1016.1
20260510123058 43 215 1.7 4.3 0.00 0.02 0.00 65 1015.8
20260510121555 42 238 1.7 3.5 0.00 0.02 0.00 72 1015.7
20260510120056 40 284 1.7 3.5 0.00 0.02 0.00 78 1015.5
20260510114559 37 255 0.0 1.7 0.00 0.02 0.00 87 1015.3
20260510113053 34 0 0.0 0.0 0.00 0.02 0.00 90 1015.2
20260510111553 33 0 0.0 0.0 0.00 0.02 0.00 90 1015.0
20260510110053 33 0 0.0 0.0 0.00 0.02 0.00 89 1014.8
20260510104554 32 0 0.0 0.0 0.00 0.02 0.00 88 1014.7
20260510103051 33 0 0.0 0.0 0.00 0.02 0.00 87 1014.5
20260510101600 33 0 0.0 0.0 0.00 0.02 0.00 88 1014.1
20260510100133 33 0 0.0 0.0 0.00 0.02 0.00 84 1014.0
20260510094556 34 0 0.0 0.0 0.00 0.02 0.00 85 1013.8
20260510093054 35 0 0.0 0.0 0.00 0.02 0.00 85 1013.9
20260510091549 35 0 0.0 0.0 0.00 0.02 0.00 83 1013.8
20260510090052 36 0 0.0 0.0 0.00 0.02 0.00 80 1013.6
20260510084553 37 0 0.0 0.0 0.00 0.02 0.00 78 1013.2
20260510083101 38 0 0.0 0.0 0.00 0.02 0.00 75 1012.9
20260510081553 39 0 0.0 0.0 0.00 0.02 0.00 77 1012.8
20260510080056 40 0 0.0 0.0 0.00 0.02 0.00 75 1012.5
20260510074555 41 0 0.0 0.0 0.00 0.02 0.00 65 1012.3
20260510073053 42 301 0.0 1.7 0.00 0.02 0.00 63 1012.3
20260510071557 43 0 0.0 3.5 0.00 0.02 0.00 63 1012.0
20260510070051 44 313 0.9 4.3 0.00 0.02 0.00 60 1011.9
20260510064553 44 344 0.9 3.5 0.00 0.02 0.00 59 1011.7
20260510063057 45 0 0.9 3.5 0.00 0.02 0.00 59 1011.6
20260510061555 46 327 0.9 5.2 0.00 0.02 0.00 54 1011.5
20260510060055 46 333 1.7 7.8 0.00 0.02 0.00 53 1011.3
20260510054552 47 355 2.6 7.8 0.00 0.02 0.00 54 1011.0
20260510053053 47 338 1.7 5.2 0.00 0.02 0.00 57 1010.8
20260510051551 48 339 1.7 5.2 0.00 0.02 0.00 58 1010.6
20260510050052 48 343 2.6 8.7 0.00 0.02 0.00 58 1010.2
20260510044556 49 9 5.2 9.6 0.00 0.02 0.00 60 1010.0
20260510043056 49 0 0.9 3.5 0.00 0.02 0.00 64 1009.6
20260510041551 49 348 0.9 4.3 0.00 0.02 0.00 65 1009.4
20260510040100 48 317 0.9 2.6 0.00 0.02 0.00 66 1009.2
20260510034603 50 0 0.0 0.0 0.00 0.02 0.02 68 1008.8
20260510033112 51 0 0.0 2.6 0.00 0.02 0.02 61 1008.6
20260510031554 52 0 0.0 0.9 0.00 0.02 0.02 60 1008.3
20260510030052 53 5 0.0 2.6 0.00 0.02 0.02 56 1008.2
20260510024557 54 0 0.9 7.0 0.00 0.02 0.02 53 1008.0
20260510023052 55 360 2.6 8.7 0.00 0.02 0.02 51 1007.8
20260510021553 56 309 1.7 7.0 0.00 0.02 0.02 49 1007.5
20260510020051 57 327 2.6 10.4 0.00 0.02 0.02 48 1007.0
20260510014551 58 330 4.3 10.4 0.00 0.02 0.02 47 1006.4
20260510013054 58 340 4.3 10.4 0.00 0.02 0.02 47 1005.8
20260510011555 58 283 4.3 10.4 0.00 0.02 0.02 46 1005.6
20260510010050 59 322 5.2 15.6 0.00 0.02 0.02 45 1005.3
20260510004552 59 311 7.0 14.8 0.00 0.02 0.02 44 1004.9
20260510003108 60 326 5.2 13.9 0.00 0.02 0.02 44 1004.7
20260510001552 61 299 10.4 17.4 0.00 0.02 0.02 40 1004.2
20260509234601 63 304 8.7 18.2 0.00 0.02 0.02 38 1003.3
20260509233051 64 345 8.7 16.5 0.00 0.02 0.02 37 1003.1
20260509231553 65 286 6.1 16.5 0.00 0.02 0.02 37 1003.0
20260509230057 65 205 9.6 17.4 0.00 0.02 0.02 36 1002.9
20260509224548 65 251 8.7 17.4 0.00 0.02 0.02 36 1002.7
20260509223051 65 315 8.7 17.4 0.00 0.02 0.02 36 1002.6
20260509221550 65 265 11.3 21.7 0.00 0.02 0.02 35 1002.5
20260509220052 65 277 6.1 25.2 0.00 0.02 0.02 37 1002.3
20260509214553 65 286 10.4 21.7 0.00 0.02 0.02 36 1002.2
20260509213058 65 297 10.4 23.5 0.00 0.02 0.02 36 1002.1
20260509211556 66 274 12.2 26.9 0.00 0.02 0.02 37 1001.9
20260509210055 65 303 10.4 21.7 0.00 0.02 0.02 37 1001.6
20260509204550 65 201 7.0 21.7 0.00 0.02 0.02 40 1001.4